| time (UTC) | temp C | wind direction | speed KPH | gust KPH | rain 1hr cm | rain 24hr cm | rain mn cm | humidity % | barometer mb |
| 20260507062402 | 13 | 36 | 9.7 | 20.9 | 0.00 | 0.00 | 0.00 | 70 | 1010.8 |
| 20260507061902 | 13 | 36 | 9.7 | 20.9 | 0.00 | 0.00 | 0.00 | 70 | 1010.7 |
| 20260507061344 | 13 | 40 | 12.9 | 17.7 | 0.00 | 0.00 | 0.00 | 70 | 1010.7 |
| 20260507060843 | 13 | 47 | 9.7 | 12.9 | 0.00 | 0.00 | 0.00 | 70 | 1010.7 |
| 20260507060348 | 13 | 46 | 8.0 | 12.9 | 0.00 | 0.00 | 0.00 | 70 | 1010.6 |
| 20260507055851 | 13 | 55 | 8.0 | 12.9 | 0.00 | 0.00 | 0.00 | 70 | 1010.6 |
| 20260507054856 | 13 | 32 | 11.3 | 16.1 | 0.00 | 0.00 | 0.00 | 70 | 1010.5 |
| 20260507054355 | 13 | 31 | 9.7 | 14.5 | 0.00 | 0.00 | 0.00 | 70 | 1010.4 |
| 20260507053857 | 13 | 22 | 8.0 | 16.1 | 0.00 | 0.00 | 0.00 | 70 | 1010.4 |
| 20260507053359 | 13 | 44 | 8.0 | 17.7 | 0.00 | 0.00 | 0.00 | 70 | 1010.4 |
| 20260507052342 | 13 | 46 | 6.4 | 16.1 | 0.00 | 0.00 | 0.00 | 69 | 1010.4 |
| 20260507051843 | 13 | 42 | 8.0 | 17.7 | 0.00 | 0.00 | 0.00 | 69 | 1010.3 |
| 20260507051343 | 13 | 57 | 8.0 | 12.9 | 0.00 | 0.00 | 0.00 | 69 | 1010.3 |
| 20260507050845 | 13 | 30 | 9.7 | 12.9 | 0.00 | 0.00 | 0.00 | 69 | 1010.3 |
| 20260507045850 | 13 | 46 | 8.0 | 16.1 | 0.00 | 0.00 | 0.00 | 69 | 1010.4 |
| 20260507044853 | 13 | 42 | 6.4 | 14.5 | 0.00 | 0.00 | 0.00 | 69 | 1010.3 |
| 20260507044355 | 13 | 35 | 8.0 | 14.5 | 0.00 | 0.00 | 0.00 | 68 | 1010.4 |
| 20260507043857 | 13 | 34 | 8.0 | 19.3 | 0.00 | 0.00 | 0.00 | 68 | 1010.4 |
| 20260507043358 | 13 | 45 | 11.3 | 19.3 | 0.00 | 0.00 | 0.00 | 68 | 1010.4 |
| 20260507042856 | 13 | 40 | 9.7 | 12.9 | 0.00 | 0.00 | 0.00 | 68 | 1010.3 |
| 20260507042357 | 13 | 38 | 8.0 | 17.7 | 0.00 | 0.00 | 0.00 | 68 | 1010.3 |
| 20260507041856 | 13 | 46 | 11.3 | 17.7 | 0.00 | 0.00 | 0.00 | 68 | 1010.3 |
| 20260507041358 | 13 | 40 | 9.7 | 16.1 | 0.00 | 0.00 | 0.00 | 68 | 1010.4 |
| 20260507040901 | 12 | 35 | 9.7 | 17.7 | 0.00 | 0.00 | 0.00 | 68 | 1010.4 |
| 20260507040401 | 12 | 22 | 9.7 | 17.7 | 0.00 | 0.00 | 0.00 | 68 | 1010.4 |
| 20260507035842 | 12 | 42 | 6.4 | 12.9 | 0.00 | 0.00 | 0.00 | 68 | 1010.4 |
| 20260507034851 | 12 | 32 | 6.4 | 12.9 | 0.00 | 0.00 | 0.00 | 68 | 1010.5 |
| 20260507034352 | 12 | 50 | 6.4 | 12.9 | 0.00 | 0.00 | 0.00 | 68 | 1010.4 |
| 20260507033854 | 12 | 49 | 8.0 | 12.9 | 0.00 | 0.00 | 0.00 | 67 | 1010.5 |
| 20260507033354 | 12 | 41 | 8.0 | 12.9 | 0.00 | 0.00 | 0.00 | 67 | 1010.5 |
| 20260507032856 | 12 | 44 | 8.0 | 12.9 | 0.00 | 0.00 | 0.00 | 67 | 1010.5 |
| 20260507032358 | 12 | 31 | 6.4 | 12.9 | 0.00 | 0.00 | 0.00 | 67 | 1010.5 |
| 20260507031901 | 12 | 27 | 4.8 | 12.9 | 0.00 | 0.00 | 0.00 | 67 | 1010.4 |
| 20260507031344 | 12 | 13 | 8.0 | 12.9 | 0.00 | 0.00 | 0.00 | 67 | 1010.5 |
| 20260507030844 | 12 | 30 | 4.8 | 8.0 | 0.00 | 0.00 | 0.00 | 67 | 1010.5 |
| 20260507030345 | 12 | 34 | 4.8 | 9.7 | 0.00 | 0.00 | 0.00 | 66 | 1010.5 |
| 20260507025846 | 12 | 33 | 4.8 | 9.7 | 0.00 | 0.00 | 0.00 | 66 | 1010.6 |
| 20260507025349 | 12 | 30 | 6.4 | 14.5 | 0.00 | 0.00 | 0.00 | 66 | 1010.6 |
| 20260507024849 | 12 | 23 | 6.4 | 14.5 | 0.00 | 0.00 | 0.00 | 66 | 1010.5 |
| 20260507024349 | 12 | 33 | 4.8 | 12.9 | 0.00 | 0.00 | 0.00 | 66 | 1010.5 |
| 20260507023850 | 12 | 36 | 6.4 | 9.7 | 0.00 | 0.00 | 0.00 | 66 | 1010.6 |
| 20260507023355 | 12 | 36 | 8.0 | 11.3 | 0.00 | 0.00 | 0.00 | 66 | 1010.5 |
| 20260507022854 | 12 | 33 | 6.4 | 12.9 | 0.00 | 0.00 | 0.00 | 66 | 1010.5 |
| 20260507022353 | 12 | 24 | 6.4 | 12.9 | 0.00 | 0.00 | 0.00 | 65 | 1010.5 |
| 20260507021856 | 12 | 30 | 6.4 | 11.3 | 0.00 | 0.00 | 0.00 | 65 | 1010.5 |
| 20260507021357 | 12 | 30 | 8.0 | 11.3 | 0.00 | 0.00 | 0.00 | 64 | 1010.5 |
| 20260507015844 | 12 | 35 | 9.7 | 19.3 | 0.00 | 0.00 | 0.00 | 63 | 1010.4 |
| 20260507013902 | 12 | 29 | 11.3 | 20.9 | 0.00 | 0.00 | 0.00 | 62 | 1010.4 |
| 20260507013358 | 13 | 25 | 11.3 | 20.9 | 0.00 | 0.00 | 0.00 | 61 | 1010.4 |
| 20260507012858 | 13 | 17 | 12.9 | 20.9 | 0.00 | 0.00 | 0.00 | 61 | 1010.5 |
| 20260507012400 | 13 | 5 | 11.3 | 24.1 | 0.00 | 0.00 | 0.00 | 61 | 1010.5 |
| 20260507011901 | 13 | 32 | 14.5 | 24.1 | 0.00 | 0.00 | 0.00 | 60 | 1010.5 |
| 20260507011402 | 13 | 43 | 11.3 | 22.5 | 0.00 | 0.00 | 0.00 | 60 | 1010.5 |
| 20260507010346 | 13 | 27 | 9.7 | 24.1 | 0.00 | 0.00 | 0.00 | 59 | 1010.5 |
| 20260507005850 | 13 | 16 | 12.9 | 24.1 | 0.00 | 0.00 | 0.00 | 59 | 1010.5 |
| 20260507005351 | 13 | 29 | 11.3 | 19.3 | 0.00 | 0.00 | 0.00 | 59 | 1010.5 |
| 20260507004359 | 13 | 50 | 9.7 | 19.3 | 0.00 | 0.00 | 0.00 | 57 | 1010.6 |
| 20260507003401 | 12 | 53 | 9.7 | 16.1 | 0.00 | 0.00 | 0.00 | 57 | 1010.5 |
| 20260507002844 | 12 | 33 | 0.0 | 16.1 | 0.00 | 0.00 | 0.00 | 57 | 1010.4 |
| 20260507002345 | 12 | 355 | 0.0 | 0.0 | 0.00 | 0.00 | 0.00 | 57 | 1010.4 |
| 20260507001845 | 12 | 350 | 0.0 | 0.0 | 0.00 | 0.00 | 0.00 | 56 | 1010.4 |
| 20260507001349 | 12 | 311 | 0.0 | 0.0 | 0.00 | 0.00 | 0.00 | 56 | 1010.4 |
| 20260507000848 | 12 | 271 | 0.0 | 0.0 | 0.00 | 0.00 | 0.00 | 57 | 1010.4 |
| 20260507000351 | 12 | 271 | 0.0 | 0.0 | 0.00 | 0.00 | 0.00 | 57 | 1010.4 |
| 20260506235854 | 12 | 271 | 0.0 | 0.0 | 0.00 | 0.00 | 0.00 | 57 | 1010.4 |
| 20260506235354 | 12 | 271 | 0.0 | 0.0 | 0.00 | 0.00 | 0.00 | 57 | 1010.4 |
| 20260506234854 | 12 | 271 | 0.0 | 0.0 | 0.00 | 0.00 | 0.00 | 57 | 1010.4 |
| 20260506234357 | 12 | 271 | 0.0 | 0.0 | 0.00 | 0.00 | 0.00 | 58 | 1010.4 |
| 20260506233401 | 11 | 271 | 0.0 | 0.0 | 0.00 | 0.00 | 0.00 | 59 | 1010.3 |
| 20260506231847 | 11 | 271 | 0.0 | 0.0 | 0.00 | 0.00 | 0.00 | 60 | 1010.3 |
| 20260506231351 | 11 | 271 | 0.0 | 0.0 | 0.00 | 0.00 | 0.00 | 59 | 1010.2 |
| 20260506230851 | 11 | 271 | 0.0 | 0.0 | 0.00 | 0.00 | 0.00 | 59 | 1010.2 |
| 20260506230354 | 11 | 271 | 0.0 | 0.0 | 0.00 | 0.00 | 0.00 | 58 | 1010.2 |
| 20260506225855 | 11 | 271 | 0.0 | 0.0 | 0.00 | 0.00 | 0.00 | 58 | 1010.3 |
| 20260506225357 | 12 | 271 | 0.0 | 0.0 | 0.00 | 0.00 | 0.00 | 57 | 1010.3 |
| 20260506224857 | 11 | 271 | 0.0 | 0.0 | 0.00 | 0.00 | 0.00 | 57 | 1010.2 |
| 20260506223842 | 11 | 271 | 0.0 | 0.0 | 0.00 | 0.00 | 0.00 | 58 | 1010.1 |
| 20260506223345 | 11 | 271 | 0.0 | 0.0 | 0.00 | 0.00 | 0.00 | 58 | 1010.1 |
| 20260506222845 | 11 | 271 | 0.0 | 0.0 | 0.00 | 0.00 | 0.00 | 58 | 1010.0 |
| 20260506222345 | 11 | 271 | 0.0 | 0.0 | 0.00 | 0.00 | 0.00 | 57 | 1010.0 |
| 20260506221846 | 12 | 271 | 0.0 | 0.0 | 0.00 | 0.00 | 0.00 | 58 | 1010.0 |
| 20260506221347 | 12 | 271 | 0.0 | 0.0 | 0.00 | 0.00 | 0.00 | 57 | 1010.0 |
| 20260506220848 | 12 | 271 | 0.0 | 0.0 | 0.00 | 0.00 | 0.00 | 57 | 1010.0 |
| 20260506220351 | 12 | 271 | 0.0 | 0.0 | 0.00 | 0.00 | 0.00 | 57 | 1010.0 |
| 20260506215854 | 12 | 271 | 0.0 | 0.0 | 0.00 | 0.00 | 0.00 | 57 | 1010.0 |
| 20260506215352 | 12 | 271 | 0.0 | 0.0 | 0.00 | 0.00 | 0.00 | 57 | 1010.1 |
| 20260506214854 | 12 | 271 | 0.0 | 0.0 | 0.00 | 0.00 | 0.00 | 56 | 1010.1 |
| 20260506214356 | 12 | 271 | 0.0 | 0.0 | 0.00 | 0.00 | 0.00 | 56 | 1010.1 |
| 20260506213858 | 12 | 271 | 0.0 | 0.0 | 0.00 | 0.00 | 0.00 | 57 | 1010.1 |
| 20260506213358 | 12 | 271 | 0.0 | 0.0 | 0.00 | 0.00 | 0.00 | 57 | 1010.1 |
| 20260506212859 | 12 | 271 | 0.0 | 0.0 | 0.00 | 0.00 | 0.00 | 57 | 1010.1 |
| 20260506211842 | 12 | 271 | 0.0 | 0.0 | 0.00 | 0.00 | 0.00 | 55 | 1010.0 |
| 20260506210849 | 12 | 271 | 0.0 | 0.0 | 0.00 | 0.00 | 0.00 | 52 | 1010.0 |
| 20260506205343 | 12 | 271 | 0.0 | 0.0 | 0.00 | 0.00 | 0.00 | 50 | 1010.1 |
| 20260506204900 | 12 | 271 | 0.0 | 0.0 | 0.00 | 0.00 | 0.00 | 52 | 1010.1 |
| 20260506204340 | 12 | 271 | 0.0 | 0.0 | 0.00 | 0.00 | 0.00 | 51 | 1010.0 |
| 20260506203901 | 12 | 271 | 0.0 | 0.0 | 0.00 | 0.00 | 0.00 | 50 | 1010.0 |
| 20260506203359 | 13 | 244 | 0.0 | 0.0 | 0.00 | 0.00 | 0.00 | 48 | 1009.9 |
| 20260506202855 | 13 | 239 | 0.0 | 0.0 | 0.00 | 0.00 | 0.00 | 46 | 1009.9 |
| 20260506202353 | 13 | 240 | 0.0 | 0.0 | 0.00 | 0.00 | 0.00 | 46 | 1009.8 |
| 20260506201852 | 13 | 240 | 0.0 | 0.0 | 0.00 | 0.00 | 0.00 | 46 | 1009.8 |
| 20260506201350 | 13 | 240 | 0.0 | 0.0 | 0.00 | 0.00 | 0.00 | 46 | 1009.8 |
| 20260506200850 | 13 | 240 | 0.0 | 0.0 | 0.00 | 0.00 | 0.00 | 49 | 1009.8 |
| 20260506200351 | 13 | 240 | 0.0 | 0.0 | 0.00 | 0.00 | 0.00 | 50 | 1009.7 |
| 20260506195852 | 13 | 240 | 0.0 | 0.0 | 0.00 | 0.00 | 0.00 | 49 | 1009.7 |
| 20260506195353 | 13 | 239 | 0.0 | 0.0 | 0.00 | 0.00 | 0.00 | 48 | 1009.7 |
| 20260506194850 | 14 | 240 | 0.0 | 0.0 | 0.00 | 0.00 | 0.00 | 46 | 1009.6 |
| 20260506194351 | 14 | 240 | 0.0 | 0.0 | 0.00 | 0.00 | 0.00 | 45 | 1009.6 |
| 20260506193849 | 15 | 222 | 0.0 | 0.0 | 0.00 | 0.00 | 0.00 | 44 | 1009.6 |
| 20260506193347 | 16 | 215 | 0.0 | 0.0 | 0.00 | 0.00 | 0.00 | 43 | 1009.6 |
| 20260506192849 | 16 | 215 | 0.0 | 0.0 | 0.00 | 0.00 | 0.00 | 41 | 1009.4 |
| 20260506192350 | 17 | 215 | 0.0 | 0.0 | 0.00 | 0.00 | 0.00 | 38 | 1009.4 |
| 20260506191850 | 18 | 215 | 0.0 | 0.0 | 0.00 | 0.00 | 0.00 | 35 | 1009.4 |
| 20260506191353 | 18 | 215 | 0.0 | 0.0 | 0.00 | 0.00 | 0.00 | 32 | 1009.4 |
| 20260506190854 | 18 | 215 | 0.0 | 0.0 | 0.00 | 0.00 | 0.00 | 31 | 1009.4 |
| 20260506190357 | 18 | 215 | 0.0 | 0.0 | 0.00 | 0.00 | 0.00 | 31 | 1009.4 |
| 20260506185401 | 18 | 215 | 0.0 | 0.0 | 0.00 | 0.00 | 0.00 | 31 | 1009.4 |
| 20260506184901 | 18 | 215 | 0.0 | 0.0 | 0.00 | 0.00 | 0.00 | 31 | 1009.4 |
| 20260506184342 | 19 | 215 | 0.0 | 0.0 | 0.00 | 0.00 | 0.00 | 31 | 1009.3 |
| 20260506183846 | 19 | 215 | 0.0 | 0.0 | 0.00 | 0.00 | 0.00 | 30 | 1009.3 |
| 20260506183348 | 19 | 215 | 0.0 | 0.0 | 0.00 | 0.00 | 0.00 | 30 | 1009.4 |
| 20260506182850 | 19 | 215 | 0.0 | 0.0 | 0.00 | 0.00 | 0.00 | 30 | 1009.3 |
| 20260506182352 | 19 | 215 | 0.0 | 0.0 | 0.00 | 0.00 | 0.00 | 30 | 1009.4 |
| 20260506181851 | 19 | 217 | 0.0 | 0.0 | 0.00 | 0.00 | 0.00 | 30 | 1009.4 |
| 20260506181351 | 19 | 215 | 0.0 | 0.0 | 0.00 | 0.00 | 0.00 | 30 | 1009.4 |
| 20260506180853 | 19 | 214 | 0.0 | 12.9 | 0.00 | 0.00 | 0.00 | 30 | 1009.4 |
| 20260506180355 | 19 | 215 | 0.0 | 12.9 | 0.00 | 0.00 | 0.00 | 30 | 1009.3 |
| 20260506175854 | 19 | 211 | 4.8 | 11.3 | 0.00 | 0.00 | 0.00 | 30 | 1009.4 |
| 20260506175358 | 19 | 198 | 0.0 | 11.3 | 0.00 | 0.00 | 0.00 | 31 | 1009.4 |
| 20260506174859 | 18 | 175 | 4.8 | 12.9 | 0.00 | 0.00 | 0.00 | 31 | 1009.4 |
| 20260506174359 | 19 | 152 | 8.0 | 12.9 | 0.00 | 0.00 | 0.00 | 30 | 1009.4 |
| 20260506173902 | 19 | 161 | 0.0 | 0.0 | 0.00 | 0.00 | 0.00 | 31 | 1009.4 |
| 20260506173343 | 19 | 142 | 0.0 | 0.0 | 0.00 | 0.00 | 0.00 | 31 | 1009.5 |
| 20260506172902 | 19 | 66 | 0.0 | 0.0 | 0.00 | 0.00 | 0.00 | 30 | 1009.5 |
| 20260506172343 | 19 | 66 | 0.0 | 0.0 | 0.00 | 0.00 | 0.00 | 30 | 1009.4 |
| 20260506171844 | 19 | 134 | 0.0 | 9.7 | 0.00 | 0.00 | 0.00 | 31 | 1009.5 |
| 20260506170850 | 18 | 124 | 9.7 | 12.9 | 0.00 | 0.00 | 0.00 | 31 | 1009.5 |
| 20260506170353 | 19 | 109 | 8.0 | 12.9 | 0.00 | 0.00 | 0.00 | 30 | 1009.5 |
| 20260506165900 | 19 | 198 | 3.2 | 11.3 | 0.00 | 0.00 | 0.00 | 30 | 1009.5 |
| 20260506165344 | 19 | 217 | 0.0 | 0.0 | 0.00 | 0.00 | 0.00 | 31 | 1009.5 |
| 20260506164846 | 19 | 252 | 0.0 | 0.0 | 0.00 | 0.00 | 0.00 | 32 | 1009.5 |
| 20260506164349 | 19 | 205 | 0.0 | 0.0 | 0.00 | 0.00 | 0.00 | 30 | 1009.6 |
| 20260506163852 | 19 | 202 | 0.0 | 0.0 | 0.00 | 0.00 | 0.00 | 30 | 1009.6 |
| 20260506163355 | 19 | 202 | 0.0 | 0.0 | 0.00 | 0.00 | 0.00 | 30 | 1009.7 |
| 20260506162858 | 19 | 202 | 0.0 | 12.9 | 0.00 | 0.00 | 0.00 | 31 | 1009.7 |
| 20260506162359 | 18 | 162 | 0.0 | 12.9 | 0.00 | 0.00 | 0.00 | 32 | 1009.7 |
| 20260506161859 | 18 | 212 | 0.0 | 3.2 | 0.00 | 0.00 | 0.00 | 32 | 1009.7 |
| 20260506161358 | 18 | 213 | 0.0 | 0.0 | 0.00 | 0.00 | 0.00 | 33 | 1009.7 |
| 20260506160858 | 18 | 213 | 0.0 | 9.7 | 0.00 | 0.00 | 0.00 | 31 | 1009.8 |
| 20260506160400 | 19 | 213 | 6.4 | 12.9 | 0.00 | 0.00 | 0.00 | 31 | 1009.8 |
| 20260506155842 | 20 | 207 | 8.0 | 12.9 | 0.00 | 0.00 | 0.00 | 30 | 1009.9 |
| 20260506155344 | 20 | 269 | 0.0 | 0.0 | 0.00 | 0.00 | 0.00 | 31 | 1009.9 |
| 20260506154354 | 19 | 196 | 0.0 | 8.0 | 0.00 | 0.00 | 0.00 | 32 | 1009.9 |
| 20260506153857 | 18 | 196 | 0.0 | 12.9 | 0.00 | 0.00 | 0.00 | 34 | 1009.9 |
| 20260506153400 | 18 | 107 | 9.7 | 12.9 | 0.00 | 0.00 | 0.00 | 32 | 1010.0 |
| 20260506152901 | 18 | 184 | 4.8 | 9.7 | 0.00 | 0.00 | 0.00 | 32 | 1010.0 |
| 20260506152401 | 18 | 189 | 0.0 | 9.7 | 0.00 | 0.00 | 0.00 | 34 | 1010.0 |
| 20260506151842 | 18 | 187 | 0.0 | 14.5 | 0.00 | 0.00 | 0.00 | 33 | 1010.1 |
| 20260506151401 | 18 | 151 | 3.2 | 14.5 | 0.00 | 0.00 | 0.00 | 33 | 1010.1 |
| 20260506150901 | 18 | 133 | 0.0 | 17.7 | 0.00 | 0.00 | 0.00 | 34 | 1010.2 |
| 20260506145845 | 18 | 202 | 8.0 | 14.5 | 0.00 | 0.00 | 0.00 | 34 | 1010.4 |
| 20260506145344 | 18 | 119 | 9.7 | 14.5 | 0.00 | 0.00 | 0.00 | 35 | 1010.5 |
| 20260506144846 | 18 | 173 | 1.6 | 16.1 | 0.00 | 0.00 | 0.00 | 36 | 1010.6 |
| 20260506144350 | 18 | 173 | 8.0 | 17.7 | 0.00 | 0.00 | 0.00 | 36 | 1010.6 |
| 20260506143851 | 18 | 151 | 8.0 | 17.7 | 0.00 | 0.00 | 0.00 | 38 | 1010.5 |
| 20260506143351 | 17 | 63 | 0.0 | 0.0 | 0.00 | 0.00 | 0.00 | 37 | 1010.6 |
| 20260506142851 | 17 | 65 | 0.0 | 0.0 | 0.00 | 0.00 | 0.00 | 38 | 1010.8 |
| 20260506142352 | 17 | 76 | 0.0 | 0.0 | 0.00 | 0.00 | 0.00 | 37 | 1010.8 |
| 20260506141854 | 17 | 100 | 0.0 | 11.3 | 0.00 | 0.00 | 0.00 | 39 | 1010.9 |
| 20260506140902 | 17 | 109 | 9.7 | 14.5 | 0.00 | 0.00 | 0.00 | 37 | 1011.0 |
| 20260506140345 | 18 | 98 | 0.0 | 9.7 | 0.00 | 0.00 | 0.00 | 37 | 1011.1 |
| 20260506135848 | 18 | 214 | 3.2 | 9.7 | 0.00 | 0.00 | 0.00 | 36 | 1011.2 |
| 20260506135350 | 18 | 48 | 0.0 | 12.9 | 0.00 | 0.00 | 0.00 | 38 | 1011.2 |
| 20260506134851 | 18 | 61 | 6.4 | 20.9 | 0.00 | 0.00 | 0.00 | 37 | 1011.2 |
| 20260506133854 | 18 | 78 | 0.0 | 0.0 | 0.00 | 0.00 | 0.00 | 43 | 1011.3 |
| 20260506131848 | 17 | 63 | 0.0 | 0.0 | 0.00 | 0.00 | 0.00 | 40 | 1011.5 |
| 20260506131352 | 18 | 49 | 0.0 | 0.0 | 0.00 | 0.00 | 0.00 | 38 | 1011.5 |
| 20260506130855 | 18 | 51 | 0.0 | 0.0 | 0.00 | 0.00 | 0.00 | 40 | 1011.7 |
| 20260506130356 | 18 | 107 | 0.0 | 0.0 | 0.00 | 0.00 | 0.00 | 43 | 1011.7 |
| 20260506125900 | 17 | 183 | 0.0 | 0.0 | 0.00 | 0.00 | 0.00 | 42 | 1011.8 |
| 20260506125343 | 17 | 104 | 0.0 | 0.0 | 0.00 | 0.00 | 0.00 | 40 | 1011.7 |
| 20260506124347 | 17 | 215 | 4.8 | 16.1 | 0.00 | 0.00 | 0.00 | 39 | 1012.0 |
| 20260506123351 | 17 | 95 | 9.7 | 19.3 | 0.00 | 0.00 | 0.00 | 41 | 1012.0 |
| 20260506122854 | 17 | 70 | 9.7 | 19.3 | 0.00 | 0.00 | 0.00 | 40 | 1012.0 |
| 20260506122356 | 17 | 86 | 4.8 | 12.9 | 0.00 | 0.00 | 0.00 | 41 | 1012.1 |
| 20260506121857 | 17 | 101 | 3.2 | 8.0 | 0.00 | 0.00 | 0.00 | 40 | 1012.2 |
| 20260506121357 | 17 | 244 | 0.0 | 11.3 | 0.00 | 0.00 | 0.00 | 43 | 1012.2 |
| 20260506120858 | 17 | 246 | 1.6 | 11.3 | 0.00 | 0.00 | 0.00 | 41 | 1012.3 |
| 20260506120400 | 17 | 239 | 0.0 | 0.0 | 0.00 | 0.00 | 0.00 | 42 | 1012.3 |
| 20260506115844 | 17 | 234 | 0.0 | 0.0 | 0.00 | 0.00 | 0.00 | 43 | 1012.4 |
| 20260506115346 | 16 | 234 | 0.0 | 8.0 | 0.00 | 0.00 | 0.00 | 43 | 1012.5 |
| 20260506114850 | 16 | 213 | 0.0 | 17.7 | 0.00 | 0.00 | 0.00 | 44 | 1012.5 |
| 20260506114351 | 16 | 116 | 6.4 | 17.7 | 0.00 | 0.00 | 0.00 | 45 | 1012.6 |
| 20260506113855 | 16 | 111 | 0.0 | 11.3 | 0.00 | 0.00 | 0.00 | 44 | 1012.7 |
| 20260506113355 | 16 | 188 | 0.0 | 17.7 | 0.00 | 0.00 | 0.00 | 45 | 1012.7 |
| 20260506112856 | 16 | 125 | 11.3 | 17.7 | 0.00 | 0.00 | 0.00 | 46 | 1012.7 |
| 20260506112400 | 16 | 196 | 0.0 | 12.9 | 0.00 | 0.00 | 0.00 | 45 | 1012.7 |
| 20260506111900 | 16 | 67 | 3.2 | 12.9 | 0.00 | 0.00 | 0.00 | 46 | 1012.8 |
| 20260506111400 | 16 | 88 | 3.2 | 12.9 | 0.00 | 0.00 | 0.00 | 47 | 1012.8 |
| 20260506110900 | 16 | 223 | 0.0 | 0.0 | 0.00 | 0.00 | 0.00 | 47 | 1012.9 |
| 20260506110359 | 16 | 230 | 0.0 | 0.0 | 0.00 | 0.00 | 0.00 | 47 | 1012.9 |
| 20260506105844 | 16 | 130 | 0.0 | 0.0 | 0.00 | 0.00 | 0.00 | 48 | 1013.1 |
| 20260506105345 | 15 | 86 | 0.0 | 6.4 | 0.00 | 0.00 | 0.00 | 50 | 1013.0 |
| 20260506104849 | 15 | 84 | 0.0 | 12.9 | 0.00 | 0.00 | 0.00 | 50 | 1013.1 |
| 20260506103856 | 16 | 96 | 8.0 | 12.9 | 0.00 | 0.00 | 0.00 | 49 | 1013.2 |
| 20260506103359 | 16 | 19 | 0.0 | 0.0 | 0.00 | 0.00 | 0.00 | 50 | 1013.2 |
| 20260506102859 | 15 | 76 | 0.0 | 0.0 | 0.00 | 0.00 | 0.00 | 50 | 1013.2 |
| 20260506101848 | 15 | 59 | 0.0 | 0.0 | 0.00 | 0.00 | 0.00 | 52 | 1013.3 |
| 20260506100358 | 15 | 132 | 0.0 | 0.0 | 0.00 | 0.00 | 0.00 | 52 | 1013.4 |
| 20260506095859 | 15 | 128 | 0.0 | 0.0 | 0.00 | 0.00 | 0.00 | 52 | 1013.4 |
| 20260506095357 | 14 | 101 | 0.0 | 0.0 | 0.00 | 0.00 | 0.00 | 54 | 1013.5 |
| 20260506094859 | 14 | 100 | 0.0 | 0.0 | 0.00 | 0.00 | 0.00 | 53 | 1013.4 |
| 20260506094358 | 14 | 102 | 0.0 | 0.0 | 0.00 | 0.00 | 0.00 | 51 | 1013.4 |
| 20260506093401 | 14 | 105 | 0.0 | 0.0 | 0.00 | 0.00 | 0.00 | 52 | 1013.5 |
| 20260506092859 | 14 | 157 | 0.0 | 0.0 | 0.00 | 0.00 | 0.00 | 55 | 1013.4 |
| 20260506092359 | 13 | 138 | 0.0 | 0.0 | 0.00 | 0.00 | 0.00 | 55 | 1013.5 |
| 20260506091858 | 13 | 132 | 0.0 | 0.0 | 0.00 | 0.00 | 0.00 | 55 | 1013.5 |
| 20260506091359 | 14 | 122 | 0.0 | 0.0 | 0.00 | 0.00 | 0.00 | 55 | 1013.5 |
| 20260506090843 | 13 | 38 | 0.0 | 0.0 | 0.00 | 0.00 | 0.00 | 56 | 1013.5 |
| 20260506090346 | 13 | 61 | 0.0 | 8.0 | 0.00 | 0.00 | 0.00 | 56 | 1013.6 |